Weather History for Erzurum, Turkey

Change the Weather History Date:

Thursday, November 7, 2013

  Actual Average Record
Temperature  
Mean Temperature 41 °F -  
Max Temperature 55 °F 41 °F 61 °F (2012)
Min Temperature 27 °F 25 °F 15 °F (2014)
Degree Days  
Heating Degree Days 24    
Moisture  
Dew Point 32 °F    
Average Humidity 70    
Maximum Humidity 100    
Minimum Humidity 34    
Precipitation  
Precipitation 0.12 in 0.04 in - ()
Sea Level Pressure  
Sea Level Pressure 30.15 in    
Wind  
Wind Speed 3 mph ()    
Max Wind Speed 9 mph    
Max Gust Speed -    
Visibility 6.4 miles    
Events Rain    
Averages and records for this station are not official NWS values.
T = Trace of Precipitation, MM = Missing Value Source: Averaged Metar Reports

Daily Weather History Graph

Daily Weather History Graph

Search for Another Location

Airport:

Trip Planner

Search our weather history database for the weather conditions in past years. The results will help you decide how hot, cold, wet, or windy it might be!

Date:

Astronomy

Nov. 07, 2013 Rise Set
Actual Time 5:51 AM EET 4:06 PM EET
Civil Twilight 5:22 AM EET 4:34 PM EET
Nautical Twilight 4:50 AM EET 5:07 PM EET
Astronomical Twilight 4:18 AM EET 5:38 PM EET
Moon 9:40 AM EET (11/7) 7:53 PM EET (11/7)
Length of Visible Light 11h 12m
Length of Day
10h 15m
Waxing Crescent, 19% of the Moon is Illuminated
Nov 7
Waxing Crescent
Nov 10
First Quarter
Nov 17
Full
Nov 25
Last Quarter
Dec 3
New

Hourly Weather History & Observations

Time (EET) Temp. Windchill Dew Point Humidity Pressure Visibility Wind Dir Wind Speed Gust Speed Precip Events Conditions
12:20 AM 35.6 °F - 28.4 °F 75% 30.18 in - Calm Calm - N/A   Clear
12:50 AM 33.8 °F - 28.4 °F 81% 30.21 in - Variable 1.2 mph - N/A   Clear
1:20 AM 33.8 °F - 28.4 °F 81% 30.21 in - Variable 2.3 mph - N/A   Clear
1:50 AM 33.8 °F - 26.6 °F 75% 30.18 in - SSW 2.3 mph - N/A   Clear
2:00 AM 33 °F - 27 °F 70%  in 12 mi SSW 2.3 mph - -  
2:20 AM 32.0 °F 28.7 °F 26.6 °F 80% 30.21 in - WNW 3.5 mph - N/A   Clear
2:50 AM 32.0 °F 27.5 °F 26.6 °F 80% 30.18 in - West 4.6 mph - N/A   Clear
3:20 AM 30.2 °F - 26.6 °F 86% 30.18 in - Variable 1.2 mph - N/A   Clear
3:50 AM 30.2 °F - 26.6 °F 86% 30.18 in - Variable 1.2 mph - N/A   Clear
4:20 AM 30.2 °F - 26.6 °F 86% 30.18 in - Variable 1.2 mph - N/A   Clear
4:50 AM 30.2 °F - 26.6 °F 86% 30.18 in - Variable 1.2 mph - N/A   Clear
5:20 AM 28.4 °F - 24.8 °F 86% 30.18 in - Variable 1.2 mph - N/A   Clear
5:50 AM 28.4 °F - 24.8 °F 86% 30.18 in 6.2 mi Variable 1.2 mph - N/A   Partly Cloudy
6:20 AM 30.2 °F - 26.6 °F 86% 30.18 in 6.2 mi Variable 1.2 mph - N/A   Partly Cloudy
6:50 AM 33.8 °F - 28.4 °F 81% 30.18 in 6.2 mi Calm Calm - N/A   Scattered Clouds
7:20 AM 33.8 °F - 28.4 °F 81% 30.18 in 4.3 mi Calm Calm - N/A   Mostly Cloudy
7:50 AM 35.6 °F - 28.4 °F 75% 30.21 in 4.3 mi Calm Calm - N/A   Mostly Cloudy
8:00 AM 35 °F - 29 °F 69%  in 4 mi Calm Calm - -   Mist
8:20 AM 35.6 °F - 28.4 °F 75% 30.21 in 6.2 mi Variable 2.3 mph - N/A   Mostly Cloudy
8:50 AM 37.4 °F - 30.2 °F 75% 30.21 in 5.0 mi Calm Calm - N/A   Mostly Cloudy
9:20 AM 39.2 °F - 32.0 °F 75% 30.18 in 5.6 mi Variable 2.3 mph - N/A   Mostly Cloudy
9:50 AM 42.8 °F 39.3 °F 33.8 °F 70% 30.18 in 5.6 mi NE 5.8 mph - N/A   Mostly Cloudy
10:20 AM 51.8 °F - 33.8 °F 50% 30.18 in 5.6 mi SW 6.9 mph - N/A   Mostly Cloudy
10:50 AM 51.8 °F - 33.8 °F 50% 30.18 in 6.2 mi SW 8.1 mph - N/A   Mostly Cloudy
11:20 AM 53.6 °F - 33.8 °F 47% 30.15 in 6.2 mi South 4.6 mph - N/A   Mostly Cloudy
11:50 AM 51.8 °F - 32.0 °F 47% 30.15 in 6.2 mi SW 9.2 mph - N/A   Mostly Cloudy
12:20 PM 53.6 °F - 33.8 °F 47% 30.12 in 6.2 mi South 6.9 mph - N/A   Mostly Cloudy
12:50 PM 53.6 °F - 33.8 °F 47% 30.12 in 6.2 mi SW 6.9 mph - N/A   Mostly Cloudy
1:20 PM 53.6 °F - 32.0 °F 44% 30.12 in 6.2 mi SSW 5.8 mph - N/A   Mostly Cloudy
1:50 PM 53.6 °F - 32.0 °F 44% 30.12 in 6.2 mi SW 8.1 mph - N/A   Mostly Cloudy
2:00 PM 53 °F - 33 °F 34%  in 12 mi SW 8.1 mph - -   Partly Cloudy
2:20 PM 53.6 °F - 32.0 °F 44% 30.12 in 6.2 mi WSW 6.9 mph - N/A   Mostly Cloudy
2:50 PM 53.6 °F - 32.0 °F 44% 30.12 in 6.2 mi WSW 6.9 mph - N/A   Mostly Cloudy
3:20 PM 51.8 °F - 33.8 °F 50% 30.12 in 6.2 mi SW 6.9 mph - N/A   Mostly Cloudy
3:50 PM 50.0 °F - 35.6 °F 58% 30.12 in 6.2 mi SSW 4.6 mph - N/A   Mostly Cloudy
4:20 PM 48.2 °F - 35.6 °F 62% 30.12 in 6.2 mi SSW 4.6 mph - N/A   Mostly Cloudy
4:50 PM 48.2 °F - 35.6 °F 62% 30.15 in 6.2 mi SSW 3.5 mph - N/A   Mostly Cloudy
5:20 PM 50.0 °F - 35.6 °F 58% 30.15 in 6.2 mi WSW 9.2 mph - N/A   Mostly Cloudy
5:50 PM 48.2 °F - 35.6 °F 62% 30.15 in 6.2 mi WNW 5.8 mph - N/A   Scattered Clouds
6:20 PM 48.2 °F - 35.6 °F 62% 30.15 in 6.2 mi Variable 1.2 mph - N/A   Scattered Clouds
6:50 PM 42.8 °F 40.1 °F 33.8 °F 70% 30.12 in 6.2 mi East 4.6 mph - N/A   Scattered Clouds
7:20 PM 41.0 °F 37.1 °F 33.8 °F 76% 30.12 in 6.2 mi ESE 5.8 mph - N/A   Scattered Clouds
7:50 PM 42.8 °F 39.3 °F 35.6 °F 76% 30.12 in 6.2 mi East 5.8 mph - N/A   Mostly Cloudy
8:00 PM 42 °F - 34 °F 66%  in 12 mi East 5.8 mph - -   Partly Cloudy
8:20 PM 39.2 °F 37.0 °F 33.8 °F 81% 30.12 in 6.2 mi WNW 3.5 mph - N/A   Mostly Cloudy
8:50 PM 39.2 °F 37.0 °F 33.8 °F 81% 30.12 in 6.2 mi South 3.5 mph - N/A   Mostly Cloudy
9:20 PM 41.0 °F - 33.8 °F 76% 30.12 in 6.2 mi Variable 2.3 mph - N/A   Mostly Cloudy
9:50 PM 42.8 °F 41.1 °F 33.8 °F 70% 30.12 in 6.2 mi SSW 3.5 mph - N/A   Mostly Cloudy
10:20 PM 42.8 °F 40.1 °F 35.6 °F 76% 30.12 in 6.2 mi SSW 4.6 mph - N/A   Mostly Cloudy
10:34 PM 42.8 °F 40.1 °F 37.4 °F 81% 30.12 in 6.2 mi SSW 4.6 mph - N/A Rain Light Rain
10:50 PM 42.8 °F - 37.4 °F 81% 30.12 in 6.2 mi Variable 2.3 mph - N/A Rain Light Rain
11:20 PM 41.0 °F 37.1 °F 39.2 °F 93% 30.12 in 6.2 mi NNW 5.8 mph - N/A Rain Light Rain
11:50 PM 41.0 °F 36.4 °F 41.0 °F 100% 30.12 in 6.2 mi NNW 6.9 mph - N/A Rain Light Rain